Back to catalog

FENGYUN 1C DEB

AliveSSO
NORAD 30693·DEBRIS·🇨🇳 China

Launched May 10, 1999 from Taiyuan Satellite Launch Center

Loading…

Next Passes (next 24 hours)

TLE

FreshSource: Space-Track

Epoch: Sep 14, 2026, 09:40 UTC

1 30693U 99025ARB 26257.40291043  .00000308  00000-0  18506-3 0  9995
2 30693  98.7128 239.9988 0030325 102.3441 258.1130 14.13578911  8271

Track FENGYUN 1C DEB in real time with AllMySat

Download on the App Store